Starlink 33663

operational
NORAD ID: 63652 Int'l Des: 2025-083 Owner: SPXS Country: US Constellation: starlink
LEOCIRCULAR

Starlink 33663について

説明を読み込み中...

リアルタイム位置

3D地球を読み込み中...

次回通過

高度履歴

Altitude vs Time

uPlot chart will show altitude changes over time

軌道要素

1 63652U 25083U 25305.56173578 .00041188 00000-0 14985-2 0 9998
2 63652 43.0012 8.5998 0001047 230.7400 129.3358 15.27567887 30472
Epoch: Nov 1, 2025 • Age: 17 hours

現在のステータス

高度 491.4 km
速度 7.62 km/s
衛星直下点 -33.09°S, 94.08°E
打ち上げ日 Apr 25, 2025
運用期間 0.5 years
タイプ internet

技術仕様

分類 Payload
質量 575.00 kg
乾燥質量 530.00 kg
総質量 575.00 kg
長さ 0.30 m
直径 4.10 m
スパン 29.00 m
形状 Box + pan
製造者 SPXS
バスタイプ Starlink V2MO
フェーズステータス In Orbit
所有者/国 SPXS/US

大規模コンステレーション

Loading constellations...